TimeEST,TemperatureF,Dew PointF,Humidity,Sea Level PressureIn,VisibilityMPH,Wind Direction,Wind SpeedMPH,Gust SpeedMPH,PrecipitationIn,Events,Conditions,WindDirDegrees,DateUTC
12:53 AM,68.0,64.9,90,30.04,10.0,Calm,Calm,-,N/A,,Clear,0,2013-02-06 05:53:00
1:53 AM,66.2,64.4,94,30.03,10.0,Calm,Calm,-,N/A,,Clear,0,2013-02-06 06:53:00
2:53 AM,66.9,64.0,90,30.02,10.0,Calm,Calm,-,N/A,,Clear,0,2013-02-06 07:53:00
3:53 AM,66.0,64.0,93,30.02,10.0,Calm,Calm,-,N/A,,Clear,0,2013-02-06 08:53:00
4:53 AM,66.9,64.9,93,30.03,10.0,Calm,Calm,-,N/A,,Clear,0,2013-02-06 09:53:00
5:53 AM,66.0,64.0,93,30.04,10.0,Calm,Calm,-,N/A,,Clear,0,2013-02-06 10:53:00
6:53 AM,66.9,64.9,93,30.07,8.0,North,4.6,-,N/A,,Clear,360,2013-02-06 11:53:00
7:53 AM,69.1,68.0,96,30.08,8.0,North,4.6,-,N/A,,Clear,360,2013-02-06 12:53:00
8:53 AM,72.0,68.0,87,30.09,10.0,NNE,5.8,-,N/A,,Clear,30,2013-02-06 13:53:00
9:53 AM,75.9,68.0,76,30.09,10.0,Variable,4.6,-,N/A,,Clear,0,2013-02-06 14:53:00
10:53 AM,77.0,68.0,74,30.11,10.0,North,5.8,-,N/A,,Clear,360,2013-02-06 15:53:00
11:53 AM,80.1,64.0,58,30.09,10.0,NNE,6.9,-,N/A,,Clear,20,2013-02-06 16:53:00
12:53 PM,78.1,66.0,66,30.08,10.0,NNW,6.9,-,N/A,,Clear,340,2013-02-06 17:53:00
1:53 PM,78.1,68.0,71,30.06,10.0,North,5.8,-,N/A,,Clear,10,2013-02-06 18:53:00
2:53 PM,79.0,64.0,60,30.05,10.0,North,4.6,-,N/A,,Clear,350,2013-02-06 19:53:00
3:33 PM,78.8,64.4,61,30.04,10.0,NNE,4.6,-,N/A,,Mostly Cloudy,30,2013-02-06 20:33:00
3:53 PM,77.0,64.9,66,30.04,10.0,Variable,3.5,-,N/A,,Mostly Cloudy,0,2013-02-06 20:53:00
4:11 PM,78.8,64.4,61,30.03,10.0,Variable,3.5,-,N/A,,Scattered Clouds,0,2013-02-06 21:11:00
4:53 PM,77.0,66.0,69,30.04,10.0,ESE,6.9,-,N/A,,Clear,120,2013-02-06 21:53:00
5:53 PM,75.0,66.9,76,30.05,10.0,ESE,8.1,-,N/A,,Clear,120,2013-02-06 22:53:00
6:53 PM,73.9,66.9,79,30.05,10.0,ESE,9.2,-,N/A,,Mostly Cloudy,110,2013-02-06 23:53:00
7:53 PM,73.9,66.9,79,30.05,10.0,ESE,11.5,-,N/A,,Clear,110,2013-02-07 00:53:00
8:53 PM,73.9,66.9,79,30.06,10.0,ESE,10.4,-,N/A,,Clear,110,2013-02-07 01:53:00
9:53 PM,73.9,66.0,76,30.06,10.0,ESE,16.1,-,N/A,,Clear,110,2013-02-07 02:53:00
10:53 PM,73.9,66.0,76,30.07,10.0,ESE,12.7,-,N/A,,Clear,120,2013-02-07 03:53:00
11:53 PM,73.9,64.9,73,30.06,10.0,East,11.5,-,N/A,,Clear,100,2013-02-07 04:53:00